Printer-friendly version
Follow the MPC on Twitter Follow the MPC on Facebook The MPC blog
Minor Planet Center

MPEC 2006-Y14 : 2006 YB

The following Minor Planet Electronic Circular may be linked-to from your own Web pages, but must not otherwise be redistributed electronically.

A form allowing access to any MPEC is at the bottom of this page.


Read MPEC 2006-Y13 Read MPEC 2006-Y15


M.P.E.C. 2006-Y14                                Issued 2006 Dec. 17, 15:12 UT

     The Minor Planet Electronic Circulars contain information on unusual
         minor planets and routine data on comets.  They are published
   on behalf of Commission 20 of the International Astronomical Union by the
          Minor Planet Center, Smithsonian Astrophysical Observatory,
                          Cambridge, MA 02138, U.S.A.

             Prepared using the Tamkin Foundation Computer Network

                              MPC@CFA.HARVARD.EDU
          URL http://cfa-www.harvard.edu/iau/mpc.html  ISSN 1523-6714

                                    2006 YB

Observations:
     K06Y00B* C2006 12 16.36160 07 34 52.39 +30 59 46.7          20.2 V EY014G96
     K06Y00B  C2006 12 16.36694 07 34 55.92 +31 00 01.5          20.4 V EY014G96
     K06Y00B  C2006 12 16.37243 07 34 59.55 +31 00 16.4          20.7 V EY014G96
     K06Y00B  C2006 12 16.37798 07 35 03.22 +31 00 31.6          19.5 V EY014G96
     K06Y00B  C2006 12 16.42064 07 35 31.45 +31 02 26.3          20.5 V EY014G96
     K06Y00B  C2006 12 16.42118 07 35 31.79 +31 02 27.5          20.1 V EY014G96
     K06Y00B  C2006 12 16.51089 07 36 31.82 +31 06 18.7          20.7 V EY014G96
     K06Y00B  C2006 12 16.51142 07 36 32.22 +31 06 20.2          20.3 V EY014G96
     K06Y00B  C2006 12 16.51197 07 36 32.54 +31 06 21.3          20.6 V EY014G96
     K06Y00B  C2006 12 17.13735 07 44 05.02 +31 33 42.9                 EY014J95
     K06Y00B  C2006 12 17.14137 07 44 07.91 +31 33 54.2                 EY014J95
     K06Y00B  C2006 12 17.14547 07 44 10.83 +31 34 03.1          20.1 R EY014J95
     K06Y00B  C2006 12 17.28226 07 45 57.27 +31 40 24.0          20.4 V EY014G96
     K06Y00B  C2006 12 17.28591 07 45 59.90 +31 40 34.1          20.4 V EY014G96
     K06Y00B  C2006 12 17.28962 07 46 02.49 +31 40 45.4          20.5 V EY014G96
     K06Y00B  C2006 12 17.29326 07 46 05.08 +31 40 54.1          20.9 V EY014G96

Observer details:
G96 Mt. Lemmon Survey.  Observer E. J. Christensen.  Measurers E. C. Beshore,
    E. J. Christensen, G. J. Garradd, A. R. Gibbs, A. D. Grauer, R. E. Hill,
    R. A. Kowalski, S. M. Larson, R. H. McNaught.  1.5-m reflector + CCD.
J95 Great Shefford.  Observer P. Birtwhistle.  0.40-m f/6.0 Schmidt-Cassegrain
    + CCD.

Orbital elements:
2006 YB                                                  Earth MOID = 0.0545 AU
Epoch 2007 Apr. 10.0 TT = JDT 2454200.5                 MPC
M  28.78599              (2000.0)            P               Q
n   0.33666629     Peri.   44.22845     -0.49472416     -0.86586912
a   2.0464586      Node    75.55442     +0.77454037     -0.47807579
e   0.5057538      Incl.    4.39966     +0.39412589     -0.14735742
P   2.93           H   24.2           G   0.15           U   8
Residuals in seconds of arc
061216 G96  0.2-  0.2-    061216 G96  0.0   0.1+    061217 G96  0.0   0.1+
061216 G96  0.1-  0.0     061216 G96  0.5+  0.2+    061217 G96  0.4+  0.1+
061216 G96  0.1-  0.1-    061216 G96  0.1-  0.1-    061217 G96  0.2-  1.1+
061216 G96  0.0   0.0     061217 J95  0.5-  0.2-    061217 G96  0.2-  0.2-
061216 G96  0.1+  0.3+    061217 J95  0.1+  0.8+
061216 G96  0.1-  0.1+    061217 J95  0.4+  0.8-

Ephemeris:
2006 YB                  a,e,i = 2.05, 0.51, 4                   q = 1.0115
Date    TT    R. A. (2000) Decl.     Delta      r     Elong.  Phase     V
2006 12 11    06 43.08   +26 55.6    0.115    1.093   158.7    19.1    20.7
2006 12 16    07 30.70   +30 43.4    0.0977   1.072   152.8    24.8    20.4
2006 12 21    08 37.17   +33 58.5    0.0859   1.054   143.2    34.0    20.4
2006 12 26    09 58.31   +34 48.4    0.0813   1.039   131.0    45.6    20.6
2006 12 31    11 16.80   +32 20.6    0.0840   1.027   119.0    56.9    20.9
2007 01 05    12 18.14   +28 00.7    0.0927   1.018   109.5    65.6    21.4
2007 01 10    13 01.43   +23 34.5    0.105    1.013   103.4    70.8    21.8

Kyle E. Smalley              (C) Copyright 2006 MPC           M.P.E.C. 2006-Y14

Read MPEC 2006-Y13 Read MPEC 2006-Y15


MPEC number:

Enter an MPEC number in one of the following forms:

  • 1997-B01 (the full form)
  • J97B01 (the packed version of the full form)
  • B01 (the abbreviated form)

Valid HTML 4.01!